When you browse on this site, cookies collect data to enhance your experience and personalize the content and advertising you see.
Visit our Privacy Policy to learn more. By continuing to use the site, you agree to this use of cookies and data.

Hourly Weather Chapulhuacan

Today, 14 July, Tuesday

Time Temperature Precipitation Wind Pressure Humidity
00:00 +21°C° 0 mm 1 mps 677 mmHg 89%
01:00 +20°C° 0 mm 1 mps 677 mmHg 89%
02:00 +20°C° 0 mm 1 mps 676 mmHg 88%
03:00 +20°C° 0 mm 1 mps 676 mmHg 87%
04:00 +20°C° 0 mm 1 mps 676 mmHg 86%
05:00 +20°C° 0 mm 1 mps 677 mmHg 86%
06:00 +22°C° 0 mm 1 mps 677 mmHg 79%
07:00 +25°C° 0 mm 1 mps 678 mmHg 71%
08:00 +27°C° 0 mm 1 mps 678 mmHg 64%
09:00 +28°C° 0 mm 1 mps 679 mmHg 59%
10:00 +29°C° 0 mm 2 mps 679 mmHg 55%
11:00 +31°C° 0 mm 2 mps 679 mmHg 51%
12:00 +31°C° 0.2 mm 2 mps 678 mmHg 51%
13:00 +31°C° 0.2 mm 2 mps 678 mmHg 51%
14:00 +31°C° 0.2 mm 2 mps 677 mmHg 51%
15:00 +30°C° 0.3 mm 2 mps 677 mmHg 57%
16:00 +29°C° 0.3 mm 2 mps 677 mmHg 63%
17:00 +28°C° 0.3 mm 2 mps 677 mmHg 70%
18:00 +26°C° 0.5 mm 1 mps 677 mmHg 78%
19:00 +24°C° 0.5 mm 1 mps 677 mmHg 86%
20:00 +22°C° 0.5 mm 1 mps 677 mmHg 95%
21:00 +22°C° 0.2 mm 1 mps 677 mmHg 95%
22:00 +20°C° 0.2 mm 0 mps 678 mmHg 95%
23:00 +19°C° 0.2 mm 0 mps 678 mmHg 95%

Tomorrow, 15 July, Wednesday

Time Temperature Precipitation Wind Pressure Humidity
00:00 +19°C° 0 mm 0 mps 677 mmHg 95%
01:00 +19°C° 0 mm 0 mps 677 mmHg 96%
02:00 +19°C° 0 mm 0 mps 676 mmHg 96%
03:00 +18°C° 0 mm 0 mps 676 mmHg 96%
04:00 +18°C° 0 mm 0 mps 676 mmHg 95%
05:00 +18°C° 0 mm 0 mps 676 mmHg 95%
06:00 +19°C° 0 mm 0 mps 677 mmHg 91%
07:00 +23°C° 0 mm 1 mps 677 mmHg 88%
08:00 +24°C° 0 mm 1 mps 678 mmHg 84%
09:00 +25°C° 0.1 mm 1 mps 678 mmHg 79%
10:00 +26°C° 0.1 mm 1 mps 678 mmHg 74%
11:00 +27°C° 0.1 mm 2 mps 678 mmHg 69%
12:00 +28°C° 0.1 mm 2 mps 678 mmHg 66%
13:00 +28°C° 0.1 mm 2 mps 677 mmHg 63%
14:00 +29°C° 0.1 mm 2 mps 677 mmHg 60%
15:00 +28°C° 0.2 mm 2 mps 677 mmHg 65%
16:00 +27°C° 0.2 mm 1 mps 676 mmHg 70%
17:00 +26°C° 0.2 mm 1 mps 676 mmHg 75%
18:00 +25°C° 0.3 mm 1 mps 677 mmHg 81%
19:00 +23°C° 0.3 mm 1 mps 677 mmHg 87%
20:00 +20°C° 0.3 mm 0 mps 678 mmHg 94%
21:00 +20°C° 0.1 mm 0 mps 678 mmHg 94%
22:00 +19°C° 0.1 mm 0 mps 678 mmHg 95%
23:00 +19°C° 0.1 mm 0 mps 678 mmHg 96%

Day after tomorrow, 16 July, Thursday

Time Temperature Precipitation Wind Pressure Humidity
00:00 +19°C° 0 mm 0 mps 677 mmHg 96%
01:00 +19°C° 0 mm 0 mps 677 mmHg 96%
02:00 +18°C° 0 mm 0 mps 677 mmHg 96%
03:00 +18°C° 0 mm 0 mps 677 mmHg 96%
04:00 +18°C° 0 mm 0 mps 677 mmHg 96%
05:00 +18°C° 0 mm 0 mps 677 mmHg 95%
06:00 +19°C° 0 mm 0 mps 678 mmHg 92%
07:00 +22°C° 0 mm 1 mps 678 mmHg 89%
08:00 +24°C° 0 mm 1 mps 679 mmHg 86%
09:00 +25°C° 0 mm 1 mps 679 mmHg 77%
10:00 +27°C° 0 mm 1 mps 679 mmHg 67%
11:00 +29°C° 0 mm 2 mps 679 mmHg 58%
12:00 +29°C° 0 mm 2 mps 679 mmHg 57%
13:00 +29°C° 0 mm 2 mps 679 mmHg 56%
14:00 +30°C° 0 mm 2 mps 678 mmHg 56%
15:00 +29°C° 0.5 mm 2 mps 678 mmHg 64%
16:00 +27°C° 0.5 mm 1 mps 677 mmHg 73%
17:00 +26°C° 0.5 mm 1 mps 677 mmHg 82%
18:00 +24°C° 0.7 mm 1 mps 677 mmHg 86%
19:00 +23°C° 0.7 mm 1 mps 678 mmHg 91%
20:00 +19°C° 0.7 mm 0 mps 678 mmHg 96%
21:00 +19°C° 0.1 mm 0 mps 678 mmHg 96%
22:00 +19°C° 0.1 mm 0 mps 678 mmHg 96%
23:00 +19°C° 0.1 mm 0 mps 679 mmHg 96%

17 July, Friday

Time Temperature Precipitation Wind Pressure Humidity
00:00 +18°C° 0 mm 0 mps 678 mmHg 96%
01:00 +18°C° 0 mm 0 mps 678 mmHg 96%
02:00 +18°C° 0 mm 0 mps 678 mmHg 96%
03:00 +18°C° 0 mm 0 mps 678 mmHg 96%
04:00 +18°C° 0 mm 0 mps 678 mmHg 96%
05:00 +18°C° 0 mm 0 mps 678 mmHg 96%
06:00 +19°C° 0 mm 0 mps 678 mmHg 90%
07:00 +21°C° 0 mm 0 mps 679 mmHg 84%
08:00 +23°C° 0 mm 0 mps 679 mmHg 78%
09:00 +26°C° 0 mm 1 mps 680 mmHg 70%
10:00 +28°C° 0 mm 2 mps 680 mmHg 63%
11:00 +29°C° 0 mm 2 mps 680 mmHg 55%
12:00 +28°C° 0.6 mm 2 mps 679 mmHg 61%
13:00 +28°C° 0.6 mm 2 mps 678 mmHg 68%
14:00 +27°C° 0.6 mm 3 mps 678 mmHg 74%
15:00 +26°C° 1.2 mm 2 mps 677 mmHg 76%
16:00 +25°C° 1.2 mm 2 mps 677 mmHg 79%
17:00 +25°C° 1.2 mm 1 mps 677 mmHg 81%
18:00 +23°C° 1.8 mm 1 mps 677 mmHg 86%
19:00 +22°C° 1.8 mm 1 mps 677 mmHg 90%
20:00 +21°C° 1.8 mm 1 mps 677 mmHg 95%
21:00 +21°C° 0.4 mm 1 mps 678 mmHg 95%
22:00 +20°C° 0.4 mm 1 mps 678 mmHg 96%
23:00 +20°C° 0.4 mm 1 mps 678 mmHg 96%

18 July, Saturday

Time Temperature Precipitation Wind Pressure Humidity
00:00 +20°C° 0.3 mm 1 mps 678 mmHg 96%
01:00 +18°C° 0.3 mm 0 mps 677 mmHg 96%
02:00 +18°C° 0.3 mm 0 mps 677 mmHg 95%
03:00 +18°C° 0 mm 0 mps 677 mmHg 95%
04:00 +17°C° 0 mm 0 mps 677 mmHg 95%
05:00 +17°C° 0 mm 0 mps 677 mmHg 95%
06:00 +19°C° 0 mm 0 mps 678 mmHg 90%
07:00 +21°C° 0 mm 0 mps 678 mmHg 84%
08:00 +23°C° 0 mm 0 mps 679 mmHg 79%
09:00 +26°C° 0 mm 1 mps 679 mmHg 70%
10:00 +27°C° 0 mm 2 mps 679 mmHg 62%
11:00 +29°C° 0 mm 2 mps 679 mmHg 54%
12:00 +29°C° 0.1 mm 3 mps 679 mmHg 53%
13:00 +29°C° 0.1 mm 3 mps 678 mmHg 53%
14:00 +30°C° 0.1 mm 3 mps 678 mmHg 52%
15:00 +28°C° 0.4 mm 3 mps 677 mmHg 61%
16:00 +27°C° 0.4 mm 2 mps 677 mmHg 69%
17:00 +25°C° 0.4 mm 2 mps 677 mmHg 78%
18:00 +24°C° 0.4 mm 1 mps 677 mmHg 83%
19:00 +22°C° 0.4 mm 1 mps 677 mmHg 89%
20:00 +20°C° 0.4 mm 1 mps 678 mmHg 95%
21:00 +20°C° 0 mm 1 mps 678 mmHg 95%
22:00 +20°C° 0 mm 1 mps 678 mmHg 95%
23:00 +20°C° 0 mm 1 mps 678 mmHg 95%

19 July, Sunday

Time Temperature Precipitation Wind Pressure Humidity
00:00 +19°C° 0 mm 1 mps 677 mmHg 94%
01:00 +19°C° 0 mm 1 mps 677 mmHg 93%
02:00 +19°C° 0 mm 1 mps 677 mmHg 93%
03:00 +19°C° 0 mm 1 mps 677 mmHg 92%
04:00 +18°C° 0 mm 1 mps 677 mmHg 91%
05:00 +18°C° 0 mm 1 mps 677 mmHg 91%
06:00 +21°C° 0 mm 1 mps 678 mmHg 82%
07:00 +23°C° 0 mm 1 mps 678 mmHg 73%
08:00 +24°C° 0 mm 0 mps 679 mmHg 65%
09:00 +27°C° 0 mm 1 mps 679 mmHg 60%
10:00 +28°C° 0 mm 2 mps 679 mmHg 56%
11:00 +29°C° 0 mm 2 mps 679 mmHg 52%
12:00 +29°C° 0 mm 2 mps 678 mmHg 51%
13:00 +29°C° 0 mm 3 mps 678 mmHg 51%
14:00 +30°C° 0 mm 3 mps 677 mmHg 50%
15:00 +29°C° 0 mm 2 mps 677 mmHg 53%
16:00 +28°C° 0 mm 2 mps 677 mmHg 56%
17:00 +27°C° 0 mm 2 mps 677 mmHg 58%
18:00 +25°C° 0.2 mm 1 mps 677 mmHg 68%
19:00 +23°C° 0.2 mm 1 mps 677 mmHg 78%
20:00 +21°C° 0.2 mm 1 mps 677 mmHg 87%
21:00 +21°C° 0.3 mm 1 mps 677 mmHg 89%
22:00 +20°C° 0.3 mm 1 mps 677 mmHg 90%
23:00 +20°C° 0.3 mm 1 mps 677 mmHg 92%
Show more